If you wish to contribute or participate in the discussions about articles you are invited to join SKYbrary as a registered user

 Actions

Annaba/Rabah Bitat

From SKYbrary Wiki

DABB
Airport
ICAO: DABB
Summary
Name Annaba/Rabah Bitat
Region Africa
Territory Algeria DZ.gif
Location Annaba
Serving
Coordinates 36° 49' 19.9992", 7° 48' 33.9984"
Runways
Designator Length Width Surface ROPS
1/19 3000 m9,842.52 ft 45 m147.638 ft ASP yes/yes
5/23 2290 m7,513.123 ft 45 m147.638 ft ASP yes/yes


METAR
Observation DABB 222300Z 29003KT 9999 FEW023 21/20 Q1021
Station Annaba
Date/Time 22 September 2018 23:00:00
Wind direction 290°
Wind speed 03 kts
Lowest cloud amount few clouds
Temperature 21°C
Dew point 20°C
Humidity 94%
QNH 1021 hPa
Weather condition n/a

Annaba/Rabah Bitat Airport

ICAO: DABB IATA: AAE

Description

Rabah Bitat Airport, formerly known as Les Salines Airport, and popularly as El Mellah Airport is an international airport located 9 km south of Annaba, a city in Algeria.

Climatology

Maps

Terrain

Loading map...

Airport Layout

Loading map...


Accidents & Serious Incidents at or in vicinity of DABB

None on SKYbrary